CSG-1

Last updated on Mon Sep 07 2026 00:02:46 GMT+0000 (Coordinated Universal Time)

1 44873U 19092A 26249.60411709 .00000197 00000+0 31357-4 0 9997 2 44873 97.8915 72.0460 0001450 86.2705 273.8674 14.82152396363532
UTC large
Height (km)
Speed (km/s)
/
Latitude / Longitude
Inclination (degrees)
Orbital Period (minutes)
Azimuth
Elevation
Range (km)
Doppler Factor

Next 0 passes for location: London (51.5072 / 0.1276)

No passes found over London.
CSG-1